Weather History for Amarillo, TX

Change the Weather History Date:

Saturday, October 12, 2013

  Actual Average Record
Temperature  
Mean Temperature 55 °F 60 °F  
Max Temperature 70 °F 73 °F 91 °F (1989)
Min Temperature 40 °F 46 °F 29 °F (1986)
Degree Days  
Heating Degree Days 10 6  
Month to date heating degree days 35 60  
Since 1 July heating degree days 44 104  
Cooling Degree Days 0 1  
Month to date cooling degree days 30 18  
Year to date cooling degree days 1802 1388  
Growing Degree Days 6 (Base 50)    
Moisture  
Dew Point 35 °F    
Average Humidity 57    
Maximum Humidity 86    
Minimum Humidity 28    
Precipitation  
Precipitation 0.00 in 0.06 in 0.95 in (1957)
Month to date precipitation 0.01 0.72  
Year to date precipitation 14.21 17.91  
Snow  
Snow 0.00 in 0.00 in T in (1986)
Month to date snowfall 0.0 0.0  
Since 1 July snowfall 0.0 T  
Since 1 September snowfall 0.0 T  
Snow Depth 0.00 in    
Sea Level Pressure  
Sea Level Pressure 30.05 in    
Wind  
Wind Speed 11 mph (NE)    
Max Wind Speed 20 mph    
Max Gust Speed 25 mph    
Visibility 10 miles    
Events      
T = Trace of Precipitation, MM = Missing Value Source: NWS Daily Summary

Daily Weather History Graph

Daily Weather History Graph

Search for Another Location

Airport:

Trip Planner

Search our weather history database for the weather conditions in past years. The results will help you decide how hot, cold, wet, or windy it might be!

Date:

Astronomy

Oct. 12, 2013 Rise Set
Actual Time 7:50 AM CDT 7:15 PM CDT
Civil Twilight 7:25 AM CDT 7:40 PM CDT
Nautical Twilight 6:55 AM CDT 8:10 PM CDT
Astronomical Twilight 6:26 AM CDT 8:39 PM CDT
Moon 3:13 PM CDT (10/12) 1:10 AM CDT (10/12)
Length of Visible Light 12h 15m
Length of Day
11h 24m
First Quarter, 59% of the Moon is Illuminated
Oct 12
First Quarter
Oct 18
Full
Oct 26
Last Quarter
Nov 3
New
Nov 9
First Quarter

Hourly Weather History & Observations

Time (CDT) Temp. Windchill Dew Point Humidity Pressure Visibility Wind Dir Wind Speed Gust Speed Precip Events Conditions
12:53 AM 53.1 °F - 21.9 °F 30% 29.86 in 10.0 mi SSW 8.1 mph - N/A   Clear
1:53 AM 55.9 °F - 26.1 °F 32% 29.86 in 10.0 mi West 10.4 mph - N/A   Clear
2:53 AM 48.9 °F - 26.1 °F 41% 29.90 in 10.0 mi WNW 4.6 mph - N/A   Clear
3:53 AM 50.0 °F - 26.1 °F 39% 29.92 in 10.0 mi NNW 10.4 mph - N/A   Clear
4:53 AM 43.0 °F 37.7 °F 26.1 °F 51% 29.96 in 10.0 mi NNE 9.2 mph - N/A   Clear
5:53 AM 43.0 °F 37.7 °F 30.9 °F 62% 29.99 in 10.0 mi North 9.2 mph - N/A   Clear
6:53 AM 42.1 °F 36.6 °F 35.1 °F 76% 30.04 in 10.0 mi North 9.2 mph - N/A   Clear
7:53 AM 41.0 °F 35.8 °F 37.9 °F 89% 30.07 in 10.0 mi North 8.1 mph - N/A   Clear
8:53 AM 46.0 °F 41.4 °F 39.9 °F 79% 30.11 in 10.0 mi North 9.2 mph - N/A   Clear
9:53 AM 54.0 °F - 39.9 °F 59% 30.12 in 10.0 mi NNE 13.8 mph 20.7 mph N/A   Clear
10:53 AM 57.0 °F - 39.0 °F 51% 30.13 in 10.0 mi NE 17.3 mph - N/A   Clear
11:53 AM 61.0 °F - 39.9 °F 46% 30.13 in 10.0 mi NE 11.5 mph - N/A   Clear
12:53 PM 64.9 °F - 39.0 °F 39% 30.12 in 10.0 mi ENE 12.7 mph 19.6 mph N/A   Clear
1:53 PM 64.9 °F - 37.9 °F 37% 30.09 in 10.0 mi East 11.5 mph - N/A   Clear
2:53 PM 69.1 °F - 37.0 °F 31% 30.07 in 10.0 mi East 9.2 mph - N/A   Clear
3:53 PM 69.1 °F - 37.0 °F 31% 30.06 in 10.0 mi East 8.1 mph - N/A   Clear
4:53 PM 69.1 °F - 36.0 °F 30% 30.06 in 10.0 mi ENE 6.9 mph - N/A   Clear
5:53 PM 69.1 °F - 36.0 °F 30% 30.06 in 10.0 mi East 9.2 mph - N/A   Clear
6:53 PM 64.9 °F - 36.0 °F 34% 30.08 in 10.0 mi East 9.2 mph - N/A   Clear
7:53 PM 60.1 °F - 36.0 °F 41% 30.12 in 10.0 mi East 9.2 mph - N/A   Clear
8:53 PM 57.9 °F - 37.0 °F 46% 30.13 in 10.0 mi East 11.5 mph - N/A   Clear
9:53 PM 57.0 °F - 37.9 °F 49% 30.12 in 10.0 mi East 13.8 mph - N/A   Clear
10:53 PM 55.0 °F - 37.9 °F 53% 30.14 in 10.0 mi East 15.0 mph - N/A   Clear
11:53 PM 54.0 °F - 39.0 °F 57% 30.14 in 10.0 mi East 13.8 mph - N/A   Clear